Regional Weather Roundup
Issued by NWS Cleveland, OH

Home | Current Version | Previous Version | Text Only | Print | Product List | Glossary Off
Versions: 1 2 3 4 5 6 7 8 9 10 11 12 13 14 15 16 17 18 19 20 21 22 23 24 25 26 27 28 29 30 31 32 33 34 35 36 37 38 39 40 41 42 43 44 45 46 47 48 49 50

000
ASUS41 KCLE 051300
RWRCLE
OHIO REGIONAL WEATHER ROUNDUP
NATIONAL WEATHER SERVICE WILMINGTON, OH
800 AM EST MON DEC 05 2016

NOTE: "FAIR" INDICATES FEW OR NO CLOUDS BELOW 12,000 FEET WITH NO
SIGNIFICANT WEATHER AND/OR OBSTRUCTIONS TO VISIBILITY.

OHZ001>008-015>018-024>027-034-035-043-044-051400-
   NORTHWEST OHIO

CITY           SKY/WX    TMP DP  RH WIND       PRES   REMARKS
DEFIANCE       CLOUDY    35  29  78 W5        30.05R
FINDLAY        CLOUDY    35  30  82 W12       30.05R WCI  27
TOLEDO EXPRESS CLOUDY    35  33  92 SW10      30.03R WCI  27
TOLEDO EXEC    CLOUDY    37  33  85 W10       30.05R
LIMA           CLOUDY    33  31  92 W10       30.06R WCI  25
$$

OHZ009>014-019>023-028>033-038-089-051400-
   NORTHEAST OHIO

CITY           SKY/WX    TMP DP  RH WIND       PRES   REMARKS
CLE-HOPKINS    CLOUDY    38  30  73 W12       30.06R
CLE-LAKEFRONT  CLOUDY    38  31  76 SW12      30.02S
CUY CO. ARPT   CLOUDY    39  34  81 SW12G22   30.02
LORAIN-ELYRIA  CLOUDY    35  30  82 W7        30.05R WCI  29
ASHTABULA      CLOUDY    38  31  76 W10       30.00R
AKRON-CANTON   CLOUDY    35  29  78 W7        30.04R WCI  29
WOOSTER        NOT AVBL
MANSFIELD      CLOUDY    34  31  88 SW6       30.05R WCI  29
YOUNGSTOWN     CLOUDY    35  31  85 SW9       30.01R WCI  28
$$

OHZ042-051>053-060>062-070>072-077>081-051400-
  SOUTHWEST OHIO

CITY           SKY/WX    TMP DP  RH WIND       PRES   REMARKS
CINC-COVINGTON CLOUDY    36  31  82 NW7       30.08S
CINC-LUNKEN    CLOUDY    38  32  79 NW6       30.11S
HAMILTON       CLOUDY    37  30  75 W5        30.11S
DAYTON         NOT AVBL
WRIGHT-PAT AFB NOT AVBL
DAYTON GENERAL CLOUDY    36  30  79 SW5       30.07F
WILMINGTON     CLOUDY    36  31  82 NW5       30.08R
$$

OHZ036-037-039>041-045>050-054>059-063>069-073>076-082>088-051400-
  CENTRAL AND SOUTHEAST OHIO

CITY           SKY/WX    TMP DP  RH WIND       PRES   REMARKS
COLUMBUS       CLOUDY    35  32  88 W6        30.09R
OSU AIRPORT    CLOUDY    35  31  85 W3        30.08R
BOLTON FIELD   CLOUDY    36  30  80 CALM      30.09S
RICKENBACK AFB NOT AVBL
NEWARK         CLOUDY    36  30  79 W3        30.09R
MARION         CLOUDY    34  30  85 W8        30.07R WCI  27
LANCASTER      CLOUDY    36  31  82 W5        30.10R
ZANESVILLE     CLOUDY    37  30  75 NW8       30.09R
NEW PHILLY     CLOUDY    36  30  79 W9        30.08S
$$




USA.gov is the U.S. government's official web portal to all federal, state and local government web resources and services.